Weather History for LEPA - November, 2010

Change the Weather History Date:

Tuesday, November 2, 2010

  Actual Average Record
Temperature  
Mean Temperature 61 °F -  
Max Temperature 69 °F 64 °F 75 °F (1999)
Min Temperature 51 °F 46 °F 44 °F (1996)
Degree Days  
Heating Degree Days 4    
Growing Degree Days 11 (Base 50)    
Moisture  
Dew Point 53 °F    
Average Humidity 76    
Maximum Humidity 94    
Minimum Humidity 53    
Precipitation  
Precipitation 0.04 in 0.06 in - ()
Sea Level Pressure  
Sea Level Pressure 29.98 in    
Wind  
Wind Speed 3 mph ()    
Max Wind Speed 14 mph    
Max Gust Speed -    
Visibility 6.6 miles    
Events Rain    
Averages and records for this station are not official NWS values.
T = Trace of Precipitation, MM = Missing Value Source: Averaged Metar Reports

Daily Weather History Graph

Daily Weather History Graph

Search for Another Location

Airport or City:

Trip Planner

Search our weather history database for the weather conditions in past years. The results will help you decide how hot, cold, wet, or windy it might be!

Date:

Astronomy

Nov. 02, 2010 Rise Set
Actual Time 7:18 AM CET 5:46 PM CET
Civil Twilight 6:50 AM CET 6:14 PM CET
Nautical Twilight 6:18 AM CET 6:46 PM CET
Astronomical Twilight 5:47 AM CET 7:17 PM CET
Moon 2:48 AM CET (11/2) 3:16 PM CET (11/2)
Length of Visible Light 11h 24m
Length of Day
10h 28m
Waning Crescent, 19% of the Moon is Illuminated
Nov 2
Waning Crescent
Nov 6
New
Nov 13
First Quarter
Nov 21
Full
Nov 28
Last Quarter

Hourly Weather History & Observations

Time (CET) Temp. Dew Point Humidity Pressure Visibility Wind Dir Wind Speed Gust Speed Precip Events Conditions
12:00 AM 57.2 °F 53.6 °F 88% 29.89 in 6.2 mi East 1.2 mph - N/A   Partly Cloudy
12:30 AM 57.2 °F 51.8 °F 82% 29.89 in 6.2 mi Calm Calm - N/A   Partly Cloudy
1:00 AM 58 °F 52 °F 76% 29.89 in 9 mi NNE 6.9 mph - -   Partly Cloudy
1:00 AM 57.2 °F 51.8 °F 82% 29.89 in 6.2 mi North 5.8 mph - N/A   Partly Cloudy
1:30 AM 57.2 °F 51.8 °F 82% 29.89 in 6.2 mi NNE 3.5 mph - N/A   Partly Cloudy
2:00 AM 57.2 °F 51.8 °F 82% 29.89 in 6.2 mi NNE 2.3 mph - N/A   Partly Cloudy
2:30 AM 55.4 °F 53.6 °F 94% 29.89 in 6.2 mi Calm Calm - N/A   Partly Cloudy
3:00 AM 57.2 °F 53.6 °F 88% 29.89 in 6.2 mi Calm Calm - N/A   Partly Cloudy
3:30 AM 57.2 °F 53.6 °F 88% 29.89 in 6.2 mi Calm Calm - N/A   Partly Cloudy
4:00 AM 55.4 °F 53.6 °F 94% 29.89 in 6.2 mi NNE 2.3 mph - N/A   Partly Cloudy
4:30 AM 60.8 °F 55.4 °F 82% 29.89 in 6.2 mi Variable 1.2 mph - N/A   Partly Cloudy
5:00 AM 60.8 °F 53.6 °F 77% 29.89 in 6.2 mi WNW 5.8 mph - N/A   Partly Cloudy
5:30 AM 60.8 °F 53.6 °F 77% 29.89 in 6.2 mi WNW 3.5 mph - N/A   Partly Cloudy
6:00 AM 60.8 °F 53.6 °F 77% 29.89 in 6.2 mi WNW 5.8 mph - N/A   Partly Cloudy
6:30 AM 62.6 °F 53.6 °F 72% 29.92 in 6.2 mi NW 10.4 mph - N/A   Partly Cloudy
7:00 AM 62 °F 54 °F 69% 29.93 in 9 mi WSW 1.2 mph - -   Partly Cloudy
7:00 AM 62.6 °F 55.4 °F 77% 29.92 in 6.2 mi WNW 4.6 mph - N/A   Scattered Clouds
7:30 AM 60.8 °F 53.6 °F 77% 29.95 in 6.2 mi East 4.6 mph - N/A Rain Light Rain
8:00 AM 59.0 °F 55.4 °F 88% 29.95 in 6.2 mi Calm Calm - N/A   Scattered Clouds
8:30 AM 59.0 °F 55.4 °F 88% 29.95 in 6.2 mi Calm Calm - N/A   Scattered Clouds
9:00 AM 59.0 °F 57.2 °F 94% 29.98 in 6.2 mi Variable 1.2 mph - N/A   Scattered Clouds
9:30 AM 60.8 °F 57.2 °F 88% 29.98 in 6.2 mi Calm Calm - N/A   Scattered Clouds
10:00 AM 60.8 °F 57.2 °F 88% 29.98 in 6.2 mi Calm Calm - N/A   Scattered Clouds
10:24 AM 62.6 °F 57.2 °F 82% 29.98 in 6.2 mi Calm Calm - N/A   Scattered Clouds
10:30 AM 62.6 °F 57.2 °F 82% 29.98 in 6.2 mi Calm Calm - N/A   Scattered Clouds
11:00 AM 66.2 °F 57.2 °F 73% 29.98 in 6.2 mi WSW 3.5 mph - N/A   Partly Cloudy
11:30 AM 66.2 °F 57.2 °F 73% 30.01 in 6.2 mi SW 4.6 mph - N/A   Partly Cloudy
12:00 PM 68.0 °F 57.2 °F 68% 30.01 in 6.2 mi WSW 3.5 mph - N/A   Partly Cloudy
12:30 PM 68.0 °F 55.4 °F 64% 30.01 in 6.2 mi West 6.9 mph - N/A   Partly Cloudy
1:00 PM 69 °F 56 °F 53% 29.99 in 16 mi West 4.6 mph - -   Partly Cloudy
1:00 PM 69.8 °F 55.4 °F 60% 29.98 in 6.2 mi WSW 8.1 mph - N/A   Partly Cloudy
1:30 PM 68.0 °F 55.4 °F 64% 29.98 in 6.2 mi WNW 8.1 mph - N/A   Partly Cloudy
2:00 PM 69.8 °F 53.6 °F 56% 29.98 in 6.2 mi West 5.8 mph - N/A   Partly Cloudy
2:30 PM 69.8 °F 53.6 °F 56% 29.98 in 6.2 mi NNW 11.5 mph - N/A   Partly Cloudy
3:00 PM 68.0 °F 53.6 °F 60% 29.98 in 6.2 mi NW 12.7 mph - N/A   Partly Cloudy
3:30 PM 68.0 °F 53.6 °F 60% 29.98 in 6.2 mi NW 13.8 mph - N/A   Partly Cloudy
4:00 PM 66.2 °F 53.6 °F 64% 29.98 in 6.2 mi NW 12.7 mph - N/A   Partly Cloudy
4:30 PM 66.2 °F 53.6 °F 64% 29.98 in 6.2 mi NW 11.5 mph - N/A   Partly Cloudy
5:00 PM 64.4 °F 51.8 °F 64% 30.01 in 6.2 mi NW 9.2 mph - N/A   Partly Cloudy
5:30 PM 64.4 °F 51.8 °F 64% 30.01 in 6.2 mi NW 6.9 mph - N/A   Partly Cloudy
6:00 PM 62.6 °F 51.8 °F 68% 30.01 in 6.2 mi Variable 1.2 mph - N/A   Partly Cloudy
6:30 PM 62.6 °F 51.8 °F 68% 30.04 in 6.2 mi NW 5.8 mph - N/A   Partly Cloudy
7:00 PM 60 °F 51 °F 64% 30.06 in 12 mi Calm Calm - -   Scattered Clouds
7:00 PM 59.0 °F 51.8 °F 77% 30.04 in 6.2 mi Variable 1.2 mph - N/A   Partly Cloudy
7:30 PM 57.2 °F 51.8 °F 82% 30.06 in 6.2 mi North 4.6 mph - N/A   Partly Cloudy
8:00 PM 57.2 °F 51.8 °F 82% 30.09 in 6.2 mi East 2.3 mph - N/A   Partly Cloudy
8:30 PM 55.4 °F 50.0 °F 82% 30.09 in 6.2 mi East 2.3 mph - N/A   Partly Cloudy
9:00 PM 55.4 °F 50.0 °F 82% 30.09 in - ENE 2.3 mph - N/A   Clear
9:30 PM 53.6 °F 50.0 °F 88% 30.09 in - Variable 2.3 mph - N/A   Clear
10:00 PM 53.6 °F 50.0 °F 88% 30.12 in - NW 3.5 mph - N/A   Clear
10:30 PM 53.6 °F 48.2 °F 82% 30.12 in - Calm Calm - N/A   Clear
11:00 PM 53.6 °F 48.2 °F 82% 30.12 in 6.2 mi Calm Calm - N/A   Scattered Clouds
11:30 PM 51.8 °F 48.2 °F 88% 30.12 in 6.2 mi Calm Calm - N/A   Partly Cloudy